Location: ???? ??????
(42.3386°N, 43.4867°E)
Time: 20:48:28
(UTC+00:00)

Daily predictions for brighter satellites

Satellite Brightness Start Highest point End
(mag) Time Altitude Azimuth Time Altitude Azimuth Time Altitude Azimuth
ARGOS 4.2 17:07:20 10° S 17:12:33 48° W 17:17:48 10° NNW
CZ-2C R/B 2.7 17:09:03 10° NNE 17:14:29 86° ESE 17:19:45 10° SSW
MetOp-A 4.2 17:09:56 10° SSE 17:15:17 87° WSW 17:20:41 10° NNW
Cosmos 1356 Rocket 4.3 17:12:05 10° NNW 17:16:15 51° W 17:20:18 10° S
SL-16 R/B 2.7 17:11:58 10° SSW 17:17:36 69° WNW 17:23:17 10° NNE
GEOS 3 Rocket 4.5 17:15:33 10° ENE 17:20:15 30° ESE 17:24:55 10° S
FALCON 9 R/B 2.8 17:21:01 10° SW 17:21:44 11° SSW 17:22:24 10° S
Ariane Rocket 4.3 17:17:41 10° S 17:22:29 41° W 17:27:19 10° NNW
Delta 2 Rocket 4.0 17:21:31 10° WSW 17:24:29 26° S 17:27:20 10° ESE
DMSP B5D2-2 4.4 17:20:50 10° N 17:26:03 75° WNW 17:31:14 10° SSW
Cosmos 1812 Rocket 3.7 17:22:00 10° N 17:26:17 56° E 17:30:31 10° SSE
ATLAS 5 CENTAUR R/B 1.5 17:22:23 10° SSW 17:26:21 56° ESE 17:30:44 10° NE
Nadezhda 1 Rocket 4.2 17:23:06 10° N 17:29:26 59° E 17:35:42 10° SSE
Cosmos 2278 Rocket 4.4 17:27:20 10° NNE 17:29:28 12° NE 17:31:36 10° ENE
Meteor 2-16 Rocket 4.5 17:23:49 10° S 17:29:54 89° E 17:36:01 10° N
OAO 2 Rocket 4.2 17:25:32 10° SW 17:30:16 34° S 17:35:02 10° ESE
Cosmos 1602 Rocket 3.6 17:26:16 10° S 17:30:40 84° E 17:35:08 10° N
Meteor 2-10 Rocket 3.6 17:26:29 10° N 17:31:35 63° ENE 17:36:50 10° SSE
Cosmos 1844 Rocket 3.2 17:27:43 10° NNW 17:33:06 46° ENE 17:38:17 11° SE
Cosmos 1125 Rocket 3.8 17:30:24 10° NNW 17:35:39 72° WSW 17:40:53 10° S
SPOT 1/Viking Rocket 4.4 17:39:27 11° SE 17:43:54 36° ENE 17:48:34 10° N
SPOT 3 Rocket 4.2 17:45:05 10° S 17:50:10 54° W 17:55:18 10° NNW
Cosmos-2242 3.3 17:50:33 10° N 17:54:48 50° E 17:58:14 15° SSE
IRIS 3.9 17:54:10 10° WSW 17:57:29 63° S 17:59:22 16° E
Cosmos 1400 Rocket 3.0 17:54:02 10° N 17:57:56 52° ENE 18:00:47 17° SSE
Resurs 01 Rocket 2.1 17:54:47 10° S 17:59:08 59° W 18:03:30 10° NNW
Terra 3.4 17:57:11 12° ESE 18:00:14 21° ENE 18:03:47 10° NNE
Lacrosse 5 rocket 4.5 17:59:03 10° NW 18:00:51 12° NNW 18:02:37 10° NNE
NOSS 3-3 (A) 4.1 17:55:54 10° S 18:01:20 46° ESE 18:07:21 10° NE
NOSS 3-3 (C) 4.1 17:56:00 10° S 18:01:26 45° ESE 18:07:27 10° NE
BREEZE-M DEB (TANK) 4.3 17:55:51 10° W 18:04:20 40° NNW 18:07:36 10° NE
Cosmos 2322 Rocket 3.9 17:59:16 10° WSW 18:04:24 36° WNW 18:09:35 10° N
SAR-Lupe-2 3.8 18:08:32 10° NNE 18:12:02 48° E 18:14:19 19° SSE
SL-24 R/B - RUBIN 2 4.5 18:08:29 10° SSW 18:14:27 88° NW 18:21:04 10° NNE
Cosmos 1758 Rocket 4.0 18:11:52 10° SSW 18:16:20 65° W 18:20:49 10° N
USA 245 3.1 18:17:20 21° S 18:19:24 81° WSW 18:23:29 10° NNW
ATLAS 2AS CENTAUR R/B 4.4 18:14:28 10° NNW 18:20:50 27° NNE 18:26:46 10° E
Cosmos 1455 3.3 18:18:35 10° NNW 18:22:13 41° W 18:25:46 10° SSW
Cosmos 1328 4.2 18:19:23 10° SSW 18:23:19 64° W 18:27:16 10° N
Cosmos 1538 Rocket 4.1 18:18:20 10° S 18:23:33 57° ESE 18:28:46 10° NNE
COSMOS 2428 2.7 18:21:07 10° S 18:26:40 61° ESE 18:32:16 10° NNE
Cosmos 2181 Rocket 4.1 18:21:53 10° N 18:28:10 63° E 18:32:21 22° SSE
Cosmos 2322 3.9 18:23:51 10° SSW 18:29:33 77° WNW 18:35:19 10° NNE
Cosmos 1844 3.8 18:24:31 10° NNW 18:30:18 78° WSW 18:34:08 22° SSE
DELTA 2 R/B (1) 3.9 18:28:36 10° SW 18:33:48 41° SSE 18:39:02 10° E
OAO 3 Rocket 4.4 18:29:51 10° WSW 18:33:50 25° SSW 18:35:05 22° S
USA 215 3.2 18:29:51 10° NE 18:36:25 71° SE 18:42:55 10° SW
Cosmos 773 Rocket 4.3 18:32:15 10° SSW 18:37:32 70° WNW 18:42:50 10° NNE
Cosmos 2237 Rocket 3.1 18:36:08 24° SE 18:37:55 29° ESE 18:42:46 10° NE
BREEZE-M DEB (TANK) 3.5 18:29:03 10° WNW 18:37:56 53° NNE 18:40:15 18° E
Cosmos 2219 Rocket 2.1 18:33:14 10° SSW 18:38:49 86° ESE 18:44:27 10° NNE
Cosmos 1953 Rocket 3.8 18:35:48 13° SSW 18:39:36 68° W 18:43:55 10° N
ERS-1 Rocket 2.9 18:36:48 25° SSE 18:39:47 80° ENE 18:44:51 10° N
Cosmos 2084 4.0 18:36:30 10° NNW 18:40:52 51° NE 18:42:59 27° ESE
Cosmos 2360 Rocket 3.9 18:36:34 10° WSW 18:41:41 34° WNW 18:46:50 10° N
Meteor 1-27 4.3 18:36:55 10° N 18:42:40 71° E 18:45:59 26° SSE
BREEZE M DEB (TANK) 4.0 18:39:25 10° SSW 18:43:46 56° SE 19:00:26 10° ENE
SPOT 5 2.9 18:43:58 28° SSE 18:46:42 81° ENE 18:51:32 10° N
ATLAS CENTAUR R/B 1.3 18:43:53 10° NNW 18:47:31 57° NE 18:48:36 38° ESE
Cosmos 1869 4.0 18:46:44 10° N 18:50:31 40° ENE 18:51:28 34° ESE
Atlas Centaur 2 3.5 18:45:44 10° WSW 18:50:46 27° S 18:52:05 25° SSE
Cosmos 1842 Rocket 3.8 18:46:35 10° N 18:50:50 52° E 18:52:14 36° SE
Cosmos 2333 Rocket 2.5 18:46:46 10° SSW 18:52:26 70° WNW 18:58:10 10° NNE
BREEZE-M R/B 4.2 18:41:39 10° WNW 18:52:52 85° SW 18:55:53 29° SE
Cosmos 967 Rocket 4.5 18:47:51 10° SSW 18:54:12 64° ESE 19:00:37 10° NE
NOSS 0 Rocket 4.0 18:54:30 23° S 18:58:22 58° ESE 19:04:24 10° NNE
BREEZE-M DEB (TANK) 4.2 19:02:44 10° W 19:05:52 31° SW 19:06:37 29° SSW
USA 267 4.0 19:02:00 13° E 19:07:36 49° NNE 19:13:52 10° NW
Meteor 2-2 Rocket 4.3 19:02:02 10° N 19:07:49 67° ENE 19:10:12 35° SSE
ATLAS 5 CENTAUR R/B 4.4 19:08:13 10° W 19:11:24 20° NW 19:14:52 10° NNE
Cosmos 1315 Rocket 3.3 19:08:42 10° NNW 19:12:44 57° W 19:14:04 37° SSW
CARTOSAT-1 4.4 19:12:34 27° SSW 19:14:24 43° W 19:18:32 10° NNW
OAO 2 Rocket 4.0 19:09:43 10° WSW 19:14:34 36° S 19:14:42 36° S
Cosmos 2278 Rocket 2.3 19:09:06 10° NNW 19:14:45 64° ENE 19:17:00 36° SE
Cosmos 1844 Rocket 4.3 19:12:12 10° NW 19:16:40 25° WSW 19:19:57 15° SSW
Cosmos 1892 2.6 19:16:30 59° ESE 19:16:43 60° E 19:20:27 10° NNE
Cosmos 1680 Rocket 3.6 19:19:13 41° SSE 19:20:55 61° ESE 19:26:11 10° NNE
SL-16 R/B 3.4 19:22:54 24° ESE 19:22:58 24° ESE 19:27:27 10° NE
Cosmos 2184 Rocket 4.0 19:24:06 27° SSW 19:27:40 79° W 19:34:00 10° N
Cosmos 1408 3.1 19:29:20 45° ENE 19:29:20 45° ENE 19:32:20 10° NNE
MTI 4.0 19:26:47 10° N 19:29:41 61° NW 19:29:41 61° NW
In-Cosmos 22 Rocket 4.0 19:32:33 37° SSW 19:34:43 82° W 19:40:04 10° N
Elektron 1 4.2 19:35:49 63° WSW 19:36:15 76° NW 19:40:48 10° NE
Cosmos 2221 2.9 19:33:08 10° NNW 19:37:25 56° W 19:38:23 45° SW
Terra 2.6 19:36:04 32° SW 19:37:40 43° W 19:42:13 10° NNW
Cosmos 923 Rocket 4.2 19:36:07 29° SSW 19:38:49 71° WNW 19:44:07 10° NNE
Lacrosse 5 rocket 4.4 19:40:20 10° N 19:41:39 11° N 19:42:57 10° NNE
NOSS 3-4 (A) 4.0 19:37:51 10° NNW 19:44:53 70° NE 19:48:39 33° SE
NOSS 3-4 (C) 4.0 19:37:57 10° NNW 19:44:59 69° NE 19:48:47 32° SE
BREEZE-M DEB (TANK) 3.8 19:44:15 10° W 19:46:27 28° WNW 19:46:27 28° WNW
TSX-5 3.8 19:43:58 10° NNW 19:47:37 71° WSW 19:47:45 70° SW
Cosmos 2058 3.5 19:51:27 43° WSW 19:52:18 51° W 19:56:21 10° N
Okean 3 Rocket 4.2 19:52:51 42° E 19:52:51 42° E 19:56:56 10° NNE
EO 1 Delta rocket 4.3 19:51:13 10° NNE 19:56:28 75° E 19:58:19 47° S
Cosmos 1624 Rocket 4.1 19:54:40 10° NNW 19:59:53 67° ENE 20:00:54 53° ESE
Cosmos 2344 3.4 19:55:08 23° SSW 20:00:08 83° ESE 20:08:02 10° NE
TIMED 4.3 20:00:05 82° SSE 20:00:13 84° ESE 20:04:37 10° NNE
Cosmos 1980 4.3 20:00:03 22° SW 20:03:38 54° WNW 20:09:11 10° NNE
Cosmos 1825 2.3 20:05:10 70° N 20:05:10 70° N 20:08:35 10° N
Cosmos 1340 4.4 20:06:04 23° ENE 20:06:04 23° ENE 20:08:14 10° NE
Cosmos 2369 Rocket 4.3 20:02:15 10° N 20:06:06 18° NE 20:09:48 10° E
Cosmos 2154 Rocket 4.3 20:05:00 33° SW 20:07:46 60° W 20:13:55 10° N
Nadezhda 3 Rocket 4.2 20:02:08 10° NNW 20:08:27 65° W 20:10:35 42° SSW
COSMOS 2455 4.2 20:06:44 10° NNW 20:12:04 31° NE 20:15:35 18° E
Cosmos 2341 Rocket 3.9 20:10:22 50° S 20:12:09 83° E 20:18:23 10° N
ATLAS 2AS CENTAUR R/B 2.7 20:05:17 10° NW 20:12:50 89° WSW 20:15:15 45° SSE
Aureole 2 Rocket 4.2 20:15:23 10° N 20:16:51 26° N 20:16:51 26° N
USA 215 4.4 20:13:05 10° NE 20:19:11 43° NNW 20:25:16 10° W
Cosmos 2151 3.0 20:19:10 71° W 20:19:14 72° W 20:23:31 10° N
Thor Agena Rocket 3.7 20:14:32 10° N 20:19:36 63° WNW 20:20:54 46° SW
DELTA 2 R/B (1) 3.4 20:14:21 10° WSW 20:19:54 67° S 20:20:29 62° SE
Helios 1A 4.4 20:20:54 27° ENE 20:21:09 27° ENE 20:24:40 10° N
Cosmos 2237 Rocket 3.2 20:17:54 18° WSW 20:21:46 42° WNW 20:27:11 10° NNE
Cosmos 1933 3.9 20:20:23 10° N 20:23:55 48° ENE 20:23:55 48° ENE
Meteor 2-12 Rocket 4.5 20:25:53 53° SSE 20:27:09 67° E 20:33:14 10° NNE
SL-8 Rocket 3.9 20:26:25 55° S 20:27:53 82° E 20:34:05 10° N
Cosmos 1371 Rocket 4.1 20:22:43 10° NNW 20:27:55 61° WSW 20:28:31 57° SW
Spot 4 4.0 20:27:43 55° WSW 20:28:05 57° W 20:32:47 10° NNW
CZ-4C R/B 4.3 20:29:43 10° NNW 20:35:58 32° NE 20:43:01 10° E
Cosmos 1408 Rocket 3.7 20:37:58 63° ENE 20:37:58 63° ENE 20:42:00 10° NNE
Cosmos 1151 Rocket 3.0 20:34:49 10° N 20:38:54 77° NNE 20:38:54 77° NNE
ALOS 2 2.5 20:41:33 79° WNW 20:41:33 79° WNW 20:45:48 10° NNW
Cosmos 1782 4.1 20:38:40 10° NNE 20:41:53 32° ENE 20:41:53 32° ENE
Cosmos 1420 Rocket 3.9 20:37:46 10° NNW 20:43:04 83° ENE 20:43:41 70° SE
Cosmos 1727 Rocket 4.3 20:37:00 10° N 20:43:09 58° E 20:44:44 45° SE
Cosmos 332 Rocket 4.2 20:38:55 10° N 20:43:38 52° ENE 20:44:07 50° E
Cosmos 1346 Rocket 3.7 20:44:58 41° NE 20:44:58 41° NE 20:47:54 10° NNE
BREEZE-M DEB (TANK) 3.3 20:43:57 32° W 20:45:32 65° NNW 20:55:04 10° ENE
Cosmos 1500 Rocket 4.5 20:47:17 38° ENE 20:47:17 38° ENE 20:50:59 10° NNE
Helios 1B rocket 4.4 20:45:11 10° NE 20:47:28 19° ENE 20:47:28 19° ENE
USA 267 3.3 20:49:19 51° S 20:50:31 58° SW 20:56:59 10° NW
Cosmos 2056 Rocket 4.1 20:46:34 10° NNW 20:51:42 44° WSW 20:52:07 43° WSW
GP-B 3.4 20:51:18 10° N 20:55:38 56° W 20:55:38 56° W
Cosmos 1633 3.7 20:58:47 41° NNE 20:58:47 41° NNE 21:01:19 10° NNE
Cosmos 2278 Rocket 3.9 20:54:29 10° WNW 20:58:14 18° W 20:58:50 18° WSW
Cosmos 1943 4.1 20:59:28 34° ESE 20:59:35 34° ESE 21:04:38 10° NE
Gbstr 26 Del rocket 3.4 21:01:50 53° NNE 21:01:50 53° NNE 21:05:14 10° NE
Cosmos 2297 3.7 20:55:43 10° NNW 21:01:23 64° WSW 21:01:57 60° SW
Cosmos 1943 Rocket 2.4 20:57:03 10° NNW 21:02:42 64° ENE 21:03:59 50° ESE
Cosmos 1048 Rocket 4.0 21:02:36 65° ESE 21:02:50 66° ESE 21:08:04 10° NNE
Cosmos 1606 4.0 20:59:30 10° NNW 21:02:25 34° WNW 21:02:25 34° WNW
Cosmos 44 4.3 21:02:28 30° W 21:03:37 36° NW 21:07:43 10° NNE
RESURS DK-1 4.2 21:00:48 10° N 21:04:12 24° NE 21:05:15 22° ENE
SL-16 R/B 2.9 21:04:44 35° WSW 21:06:43 49° WNW 21:12:15 10° NNE
Cosmos 371 Rocket 3.5 21:08:08 10° NNW 21:12:42 57° W 21:12:42 57° W
Landsat 4 4.4 21:10:39 10° NNE 21:13:37 52° NNE 21:13:37 52° NNE
Cosmos 1862 4.5 21:17:49 35° ENE 21:17:49 35° ENE 21:20:52 10° NNE
Cosmos 1452 Rocket 3.4 21:13:31 10° NNW 21:18:46 72° WSW 21:19:02 70° SW
Lacrosse 5 rocket 3.1 21:18:33 10° NNW 21:22:00 28° NNE 21:23:42 20° ENE
Cosmos 1515 Rocket 3.9 21:19:09 10° NNW 21:23:00 54° WNW 21:23:00 54° WNW
Cosmos 405 4.2 21:19:58 10° NNW 21:22:23 41° NNW 21:22:23 41° NNW
SeaSat 1 4.1 21:24:50 10° ENE 21:28:22 21° ESE 21:28:22 21° ESE
ISS -1.2 21:31:57 16° ENE 21:31:57 16° ENE 21:32:43 10° ENE
Meteor 2-3 Rocket 4.4 21:30:38 38° WSW 21:31:55 44° WNW 21:37:22 10° N
Resurs 1-4 Rocket 3.8 21:37:30 10° NE 21:41:24 20° E 21:42:43 19° ESE
Cosmos 1603 3.6 21:40:44 64° SSW 21:41:39 89° W 21:47:25 10° NNE
Cosmos 2228 Rocket 3.2 21:39:34 10° NNW 21:43:57 65° W 21:43:57 65° W
Meteor 2-6 Rocket 4.0 21:40:11 10° N 21:45:40 88° W 21:46:26 67° S
Meteor 1-10 Rocket 4.1 21:41:13 10° N 21:46:48 79° E 21:47:53 59° SSE
Cosmos 1821 Rocket 3.9 21:46:19 55° SSW 21:47:41 74° W 21:53:48 10° N
Cosmos 1633 Rocket 4.0 21:50:30 36° E 21:50:41 36° E 21:54:43 10° NNE
Cosmos 2369 Rocket 2.0 21:45:09 10° NNW 21:50:46 77° WSW 21:51:33 64° S
Sich 1 3.0 21:52:56 71° ENE 21:52:56 71° ENE 21:57:06 10° NNE
CZ-4 R/B 3.8 21:48:12 10° N 21:52:51 65° WNW 21:53:14 62° W
Cosmos 44 Rocket 3.0 21:53:25 85° SW 21:53:33 89° WNW 21:58:19 10° NNE
Cosmos 2123 Rocket 4.1 21:48:00 10° N 21:54:11 69° E 21:56:08 44° SSE
Lacrosse 5 3.5 21:57:10 21° ESE 21:57:10 21° ESE 22:00:22 10° ENE
Cosmos 304 Rocket 4.3 21:52:17 10° NNW 21:56:33 44° W 21:56:33 44° W
COSMOS 2455 3.1 21:52:26 10° NW 21:58:13 50° WSW 21:58:41 49° SW
SL-4 R/B 3.8 22:02:16 17° NE 22:02:16 17° NE 22:03:09 10° NE
Cosmos 1656 Rocket 3.8 21:55:56 10° NNW 22:01:21 67° ENE 22:03:11 41° SE
ATLAS 2AS CENTAUR R/B 4.3 21:58:16 10° WNW 22:02:36 17° WSW 22:02:39 17° WSW
USA 32 4.0 22:11:10 60° SW 22:11:59 71° W 22:17:16 10° N
CZ-2D R/B 3.0 22:09:31 10° NNE 22:14:30 39° E 22:16:01 32° SE
Meteor 1-27 Rocket 3.7 22:10:57 10° N 22:16:35 86° E 22:18:11 50° SSE
Cosmos 1812 3.2 22:13:10 10° NNW 22:16:21 51° NW 22:16:21 51° NW
Cosmos 1605 Rocket 4.1 22:15:10 44° SSE 22:17:16 74° E 22:23:35 10° N
Cosmos 2263 4.2 22:13:44 10° NNW 22:19:24 62° WSW 22:20:24 53° SSW
Cosmos 1607 3.9 22:18:55 50° SSW 22:20:36 76° ESE 22:26:53 10° NE
SL-16 R/B 3.1 22:17:47 23° SE 22:21:34 56° ENE 22:27:40 10° N
Helios 1B rocket 3.5 22:19:52 10° N 22:23:35 33° WNW 22:23:47 33° WNW
Cosmos 1666 Rocket 3.4 22:24:14 73° WSW 22:24:29 76° W 22:28:54 10° N
CZ-4C R/B 2.9 22:17:50 10° NW 22:25:14 77° WSW 22:30:39 24° SSE
Meteor 2-20 Rocket 4.4 22:20:12 10° N 22:26:22 88° W 22:28:32 44° S
CZ-4C R/B 4.0 22:29:56 41° ESE 22:30:52 50° ENE 22:34:38 10° N
Cosmos 1934 Rocket 4.3 22:33:30 39° SW 22:35:21 53° WNW 22:41:27 10° N
NPP 4.1 22:30:38 10° NNE 22:35:55 52° E 22:37:47 36° SSE
Cosmos 292 Rocket 3.7 22:31:11 10° NNW 22:36:01 79° ENE 22:37:24 46° SSE
Cosmos 1441 Rocket 3.5 22:38:42 57° W 22:38:43 57° WNW 22:42:39 10° N
RESURS DK-1 3.7 22:38:35 10° NW 22:41:06 27° WNW 22:41:06 27° WNW
Cosmos 1943 4.2 22:41:16 26° WSW 22:43:33 37° WNW 22:48:47 10° N
SAR-Lupe-3 4.5 22:41:38 10° NNE 22:45:11 82° NW 22:45:11 82° NW
Cosmos 1943 Rocket 3.8 22:42:07 10° WNW 22:45:29 18° W 22:45:29 18° W
Cosmos 2251 Rocket 3.8 22:44:17 40° SSE 22:45:53 56° ESE 22:51:01 10° NNE
Iridium 4 Rocket 3.8 22:45:51 44° SSW 22:47:46 71° W 22:53:27 10° N
Meteor 1-20 Rocket 4.2 22:46:23 40° S 22:48:24 72° E 22:54:00 10° NNE
Meteor 1-4 Rocket 2.9 22:47:28 10° N 22:51:12 62° E 22:51:48 52° SE
CZ-4B R/B 3.9 22:49:15 10° NNE 22:54:18 55° E 22:56:16 34° SSE
Abrixas rocket 2.8 22:56:58 46° NE 22:56:58 46° NE 22:59:08 10° ENE
Lacrosse 5 rocket 2.8 22:57:37 10° WNW 22:59:14 22° WNW 22:59:14 22° WNW
Cosmos 1992 Rocket 4.2 22:58:23 10° NNW 23:03:38 72° ENE 23:07:26 19° SSE
MOZ.5/SAFIR/RUBIN 5/SL-8 4.1 23:03:38 43° SW 23:04:28 49° W 23:09:06 10° NNW
Cosmos 389 Rocket 4.1 23:02:30 10° NW 23:04:34 22° WNW 23:04:34 22° WNW
Cosmos 1238 Rocket 4.0 23:03:27 36° SW 23:05:43 58° W 23:11:03 10° N
GRACE-FO 1 4.4 23:02:25 10° N 23:06:04 79° W 23:06:25 69° SSW
SeaSat 1 2.8 23:01:29 10° NNE 23:06:17 54° WNW 23:08:09 34° WSW
ISS -1.9 23:04:52 19° WNW 23:06:23 27° NNW 23:09:20 10° NE
GRACE-FO 2 4.4 23:02:47 10° N 23:06:27 78° W 23:06:48 68° SW
UNK 3.7 23:05:19 46° SSW 23:06:32 66° WSW 23:11:08 10° NNW
Cosmos 724 4.4 23:05:38 35° S 23:08:01 66° ESE 23:13:47 10° NE
Meteor 1-14 Rocket 4.4 23:08:40 28° S 23:11:33 66° E 23:17:05 10° NNE
Cosmos 405 Rocket 3.3 23:11:48 35° SSE 23:13:06 51° E 23:16:51 10° NNE
Cosmos 2242 Rocket 3.6 23:09:03 10° N 23:13:39 88° W 23:15:34 35° S
Cosmos 1470 Rocket 4.1 23:16:13 37° WSW 23:17:18 45° WNW 23:21:38 10° N
Resurs 1-4 Rocket 2.5 23:16:21 10° N 23:21:31 52° WNW 23:23:48 31° SW
Okean 1 3.2 23:21:42 10° NNW 23:25:40 76° W 23:27:01 39° S
Cosmos 2100 Rocket 4.0 23:25:47 27° SSW 23:29:26 78° W 23:35:44 10° N
IRS-P3 4.5 23:24:19 10° NNE 23:29:37 61° ESE 23:33:06 21° S
ADEOS II 2.2 23:25:52 10° NNE 23:31:09 76° ESE 23:34:19 25° S
SL-4 R/B 3.8 23:32:14 11° WNW 23:32:51 12° NW 23:33:56 10° NNW
SL-08 R/B 4.1 23:28:43 10° SSE 23:33:14 51° ENE 23:37:52 10° N
Cosmos 1802 Rocket 4.0 23:34:11 23° S 23:38:25 87° W 23:44:52 10° N
IRS-1D 3.4 23:33:36 10° N 23:38:35 75° WNW 23:41:15 27° SSW
Lacrosse 5 2.0 23:36:20 27° WSW 23:39:07 69° NW 23:44:12 10° NE
Meteor 1-28 Rocket 4.5 23:36:24 10° SE 23:39:51 39° ENE 23:43:21 10° N
COBE Rocket 4.0 23:36:16 13° SSE 23:40:50 83° ENE 23:45:53 10° N
Cosmos 1500 3.2 23:45:02 27° S 23:47:02 81° E 23:50:51 10° N
Okean 1-7 3.2 23:46:06 10° NNW 23:50:25 56° W 23:52:54 24° SSW
Cosmos 1656 4.4 23:47:21 10° NNW 23:52:41 53° ENE 23:57:58 10° SE
CZ-2D R/B 3.3 23:49:54 10° N 23:54:22 28° WNW 23:57:20 17° WSW
